Location: Demmingen
(48.6757°N, 10.4375°E)
Time: 00:48:35
(UTC+00:00)

CZ-2C R/B - Pass Details

Date: 06 August 2024
Orbit: 703 x 904 km, 98.2° (Epoch: 07 September)

Event Time Altitude Azimuth Distance (km) Brightness Sun altitude
Rises 02:57:41 0° 1° (N) 3,137 6.8 -9.4°
Reaches altitude 10° 03:00:33 10° 343° (NNW) 2,235 5.7 -9.0°
Maximum altitude 03:03:48 18° 301° (WNW) 1,771 4.7 -8.6°
Drops below altitude 10° 03:07:07 10° 260° (W) 2,294 4.9 -8.2°
Enters shadow 03:07:43 - 255° (WSW) 2,466 5.0 -8.1°
